Terminal Aerodrome Forecast
Issued by NWS

Home | Current Version | Previous Version | Text Only | Print | Product List | Glossary On
Versions: 1 2 3 4 5 6 7 8 9 10 11 12 13 14 15 16 17 18 19 20 21 22 23 24 25 26 27 28 29 30 31 32 33 34 35 36 37 38 39 40 41 42 43 44 45
557
FTAK31 PANC 071740
TAFACV
TAF
PACV 071740Z 0718/0818 VRB03KT P6SM VCFG SCT005 BKN045
     FM072200 04004KT P6SM -SHSN SCT015 OVC050
     FM080300 09012KT 6SM -RASN BR OVC030
     FM080600 09010G18KT 6SM -RA BR OVC030
     FM081200 10015G25KT 6SM -RA OVC025=

USA.gov is the U.S. government's official web portal to all federal, state and local government web resources and services.